Flag for Comoros Weather past 2 weeks in Moroni, Comoros

Now
73 °F

Passing clouds.


Feels Like: 73 °F
Forecast: 72 / 80 °F
Wind: 9 mph from East

Location: Hahaya International Airport

Current Time: Jul 26, 2014 at 12:39:17 AM

Latest Report: Jul 25, 2014 at 11:00 PM


Visibility: N/A

Pressure: 30.04 "Hg

Humidity: 83%

Dew point: 68 °F

Location of MoroniLocation

Historic Weather in Moroni — Graph

°F

Moroni temperature yesterday

Maximum temperature yesterday: 88 °F (at 2:00 PM)
Minimum temperature yesterday: 72 °F (at 2:00 AM)
Average temperature yesterday: 78 °F

Past Weeks' High & Low Weather Summary

 TemperatureHumidityPressure
High88 °F (Jul 25, 2:00 PM)94% (Jul 21, 7:00 AM)30.15 "Hg (Jul 21, 7:00 AM)
Low66 °F (Jul 15, 6:00 AM)46% (Jul 17, 11:00 AM)29.98 "Hg (Jul 18, 4:00 PM)
Average79 °F69%30.06 "Hg
* Reported Jul 11 6:00 AM — Jul 25 11:00 PM, Moroni, Weather by CustomWeather, © 2014

Note: Actual official high and low records may vary slightly from our data, if they occured in-between our weather recording intervals... More about our weather records

Advertising

Moroni weather history for previous 24 hours

 ConditionsComfort  
Time TempWeatherWind HumidityBarometerVisibility
11:00 PM
Jul 25
73 °FPassing clouds.9 mph83%30.04 "HgN/A
10:00 PM73 °FPassing clouds.5 mph83%30.04 "HgN/A
9:00 PM73 °FPassing clouds.7 mph83%30.04 "HgN/A
8:00 PM75 °FPassing clouds.2 mph83%30.04 "HgN/A
7:00 PM77 °FPassing clouds.7 mph79%30.01 "HgN/A
6:00 PM77 °FPassing clouds.No wind79%30.01 "HgN/A
5:00 PM79 °FPassing clouds.6 mph74%30.01 "HgN/A
4:00 PM81 °FScattered clouds.6 mph74%30.01 "HgN/A
3:00 PM86 °FScattered clouds.10 mph55%30.01 "HgN/A
2:00 PM88 °FScattered clouds.10 mph52%30.01 "HgN/A
1:00 PM84 °FScattered clouds.7 mph58%30.04 "HgN/A
12:00 PM86 °FScattered clouds.9 mph52%30.07 "HgN/A
11:00 AM81 °FScattered clouds.6 mph66%30.07 "HgN/A
10:00 AM84 °FPassing clouds.6 mph58%30.07 "HgN/A
9:00 AM81 °FPassing clouds.7 mph66%30.07 "HgN/A
8:00 AM77 °FPassing clouds.9 mph74%30.07 "HgN/A
7:00 AM73 °FPassing clouds.5 mph78%30.07 "HgN/A
2:00 AM72 °FPassing clouds.No wind88%30.04 "HgN/A
1:00 AM73 °FPassing clouds.6 mph83%30.07 "HgN/A
12:00 AM75 °FPassing clouds.6 mph78%30.07 "HgN/A
Weather by CustomWeather, © 2014

See weather overviewHow to use our weather pages